Погода в Маркучи

Россия / Амурская область     51°34′30″N   127°42′16″E
темп.,
°C
ветер,
м/с
пор.,
м/с
влажн.,
%
обл.,
%
осадки,
мм/ч
давл.,
гПа
погр.,
м
25 января, пн
пн2500:00−26ссз338377 0.0 104143
03:00−26ссз338088 0.0 104253
06:00−27с2381100 0.0 104234
09:00−28всв2282100 0.0 104140
12:00−25всв3476100 0.0 1040245
15:00−24св4580100 0.0 1037307
18:00−27всв5889100 0.0 1033161
21:00−26всв4690100 0.0 1030248
26 января, вт
вт2600:00−25всв6894100 0.2 1026243
03:00−24в4799100 1.1 1022252
06:00−22в5898100 1.1 1018285
09:00−20в4798100 1.7 1015195
12:00−16ю4590100 0.5 1014634
15:00−20юз5791100 0.7 1012500
18:00−25юз459188 0.0 101472
21:00−25зюз349490 0.0 101460
27 января, ср
ср2700:00−27зюз239591 0.0 101422
03:00−28з229392 0.0 101419
06:00−28з2295100 0.0 101419
09:00−27зсз1297100 0.0 101619
12:00−23зсз238996 0.0 1017317
15:00−21сз458898 0.1 1017601
18:00−23зсз4697100 0.1 1019142
21:00−23зсз5997100 0.2 1020265
28 января, чт
чт2800:00−24сз61095100 0.1 1021356
03:00−26сз61095100 0.3 1022328
06:00−28сз6994100 0.1 1022287
09:00−29сз6994100 0.1 1023353
12:00−27сз6893100 0.1 1024396
15:00−27ссз5792100 0.1 1023419
18:00−29сз4794100 0.1 1024217
21:00−30сз4795100 0.1 1025157
29 января, пт
пт2900:00−31сз459696 0.0 1025110
03:00−33сз349687 0.0 102462
06:00−33сз349789 0.0 102467
09:00−34зсз349381 0.0 102563
12:00−29зсз468071 0.0 1025428
15:00−28зсз457775 0.0 1024569
18:00−33сз228959 0.0 102519
21:00−35ссз009334 0.0 102719